User: anonymous   Login
Location: Fishcreek Rd Observing Site
(41.1865°N, 81.4271°W)
Time: 13:19:07
(UTC-04:00)
Language:

Iridium 75 - Orbit

View from above orbital plane
View from above orbital plane
View from above satellite
View from above satellite

Ground track
Ground track

The orbit data is extracted from the following two-line orbital elements,

1 25346U 98032E   18110.88002199 -.00000024 +00000-0 -15591-4 0  9993
2 25346 086.3926 095.5501 0002260 085.0689 275.0765 14.34213534043477
Epoch (UTC): 20 April 2018 21:07:13
Eccentricity: 0.0002260
inclination: 86.3926°
perigee height: 776 km
apogee height: 779 km
right ascension of ascending node: 95.5501°
argument of perigee: 85.0689°
revolutions per day: 14.34213534
mean anomaly at epoch: 275.0765°
orbit number at epoch: 4347

The dashed part of the orbit path shows where the satellite is in the earth's shadow,  

DLR